Location: Wien
(48.2082°N, 16.3738°E)
Time: 00:51:55
(UTC+02:00)

STARS - Pass Details

Date: 25 April 2024
Orbit: 605 x 620 km, 98.1° (Epoch: 19 May)

Event Time Altitude Azimuth Distance (km) Brightness Sun altitude
Rises 02:51:02 0° 355° (N) 2,902 ? -23.1°
Reaches altitude 10° 02:55:00 10° 318° (NW) 1,984 ? -22.7°
Maximum altitude 02:56:00 11° 305° (NW) 1,933 ? -22.7°
Enters shadow 02:56:44 10° 295° (WNW) 1,958 ? -22.6°
